• In Hungary
  • List of Countries
  • For 7 days
  • Water Temperature
  • Satellite Maps
  • Weather Map
  • News
  • Weather Widgets
  • user-avatar
    Login

    Hourly Weather Yulara

    Today, 21 August, Tuesday

    Time Temperature Precipitation Wind Pressure Humidity
    00:00 +11°C° 0 mm 4 mps 721 mmHg 19%
    01:00 +11°C° 0 mm 3 mps 721 mmHg 21%
    02:00 +10°C° 0 mm 3 mps 721 mmHg 22%
    03:00 +9°C° 0 mm 3 mps 721 mmHg 23%
    04:00 +9°C° 0 mm 3 mps 720 mmHg 23%
    05:00 +8°C° 0 mm 3 mps 720 mmHg 24%
    06:00 +8°C° 0 mm 2 mps 720 mmHg 25%
    07:00 +10°C° 0 mm 3 mps 720 mmHg 22%
    08:00 +12°C° 0 mm 3 mps 720 mmHg 18%
    09:00 +16°C° 0 mm 5 mps 721 mmHg 14%
    10:00 +19°C° 0 mm 5 mps 720 mmHg 13%
    11:00 +21°C° 0 mm 5 mps 720 mmHg 12%
    12:00 +23°C° 0 mm 6 mps 719 mmHg 11%
    13:00 +25°C° 0 mm 5 mps 719 mmHg 11%
    14:00 +26°C° 0 mm 5 mps 718 mmHg 10%
    15:00 +26°C° 0 mm 4 mps 717 mmHg 10%
    16:00 +25°C° 0 mm 4 mps 717 mmHg 12%
    17:00 +22°C° 0 mm 3 mps 717 mmHg 13%
    18:00 +20°C° 0 mm 2 mps 716 mmHg 15%
    19:00 +19°C° 0 mm 2 mps 717 mmHg 15%
    20:00 +19°C° 0 mm 3 mps 717 mmHg 16%
    21:00 +18°C° 0 mm 3 mps 717 mmHg 17%
    22:00 +17°C° 0 mm 3 mps 717 mmHg 17%
    23:00 +17°C° 0 mm 3 mps 717 mmHg 18%

    Tomorrow, 22 August, Wednesday

    Time Temperature Precipitation Wind Pressure Humidity
    00:00 +15°C° 0 mm 4 mps 717 mmHg 18%
    01:00 +15°C° 0 mm 4 mps 717 mmHg 19%
    02:00 +15°C° 0 mm 4 mps 717 mmHg 20%
    03:00 +14°C° 0 mm 4 mps 716 mmHg 20%
    04:00 +14°C° 0 mm 4 mps 716 mmHg 21%
    05:00 +13°C° 0 mm 4 mps 716 mmHg 21%
    06:00 +13°C° 0 mm 4 mps 716 mmHg 21%
    07:00 +15°C° 0 mm 5 mps 716 mmHg 19%
    08:00 +17°C° 0 mm 6 mps 717 mmHg 16%
    09:00 +20°C° 0 mm 6 mps 717 mmHg 14%
    10:00 +23°C° 0 mm 7 mps 717 mmHg 13%
    11:00 +26°C° 0 mm 8 mps 717 mmHg 12%
    12:00 +28°C° 0 mm 8 mps 716 mmHg 10%
    13:00 +28°C° 0 mm 9 mps 716 mmHg 10%
    14:00 +29°C° 0 mm 9 mps 715 mmHg 10%
    15:00 +29°C° 0 mm 10 mps 715 mmHg 10%
    16:00 +28°C° 0 mm 9 mps 714 mmHg 11%
    17:00 +27°C° 0 mm 8 mps 714 mmHg 12%
    18:00 +24°C° 0 mm 7 mps 714 mmHg 13%
    19:00 +23°C° 0 mm 7 mps 715 mmHg 20%
    20:00 +21°C° 0 mm 7 mps 716 mmHg 26%
    21:00 +20°C° 0 mm 6 mps 716 mmHg 32%
    22:00 +17°C° 0 mm 8 mps 716 mmHg 34%
    23:00 +16°C° 0 mm 9 mps 717 mmHg 37%

    Day after tomorrow, 23 August, Thursday

    Time Temperature Precipitation Wind Pressure Humidity
    00:00 +14°C° 0 mm 10 mps 717 mmHg 39%
    01:00 +12°C° 0 mm 10 mps 717 mmHg 37%
    02:00 +11°C° 0 mm 9 mps 717 mmHg 35%
    03:00 +10°C° 0 mm 8 mps 717 mmHg 32%
    04:00 +9°C° 0 mm 8 mps 718 mmHg 36%
    05:00 +8°C° 0 mm 7 mps 718 mmHg 40%
    06:00 +7°C° 0 mm 6 mps 719 mmHg 44%
    07:00 +8°C° 0 mm 6 mps 719 mmHg 42%
    08:00 +9°C° 0 mm 7 mps 720 mmHg 39%
    09:00 +10°C° 0 mm 7 mps 720 mmHg 37%
    10:00 +12°C° 0 mm 7 mps 720 mmHg 33%
    11:00 +14°C° 0 mm 7 mps 720 mmHg 30%
    12:00 +16°C° 0 mm 6 mps 720 mmHg 27%
    13:00 +17°C° 0 mm 6 mps 719 mmHg 24%
    14:00 +18°C° 0 mm 7 mps 718 mmHg 22%
    15:00 +20°C° 0 mm 7 mps 718 mmHg 20%
    16:00 +19°C° 0 mm 6 mps 718 mmHg 22%
    17:00 +17°C° 0 mm 6 mps 718 mmHg 25%
    18:00 +16°C° 0 mm 6 mps 718 mmHg 27%
    19:00 +14°C° 0 mm 5 mps 719 mmHg 30%
    20:00 +13°C° 0 mm 5 mps 720 mmHg 33%
    21:00 +12°C° 0 mm 5 mps 720 mmHg 36%
    22:00 +10°C° 0 mm 5 mps 720 mmHg 41%
    23:00 +11°C° 0 mm 4 mps 720 mmHg 46%

    24 August, Friday

    Time Temperature Precipitation Wind Pressure Humidity
    00:00 +10°C° 0 mm 4 mps 720 mmHg 51%
    01:00 +8°C° 0 mm 4 mps 720 mmHg 56%
    02:00 +8°C° 0 mm 4 mps 720 mmHg 61%
    03:00 +7°C° 0 mm 4 mps 719 mmHg 66%
    04:00 +7°C° 0 mm 4 mps 719 mmHg 70%
    05:00 +7°C° 0 mm 4 mps 719 mmHg 74%
    06:00 +6°C° 0 mm 4 mps 720 mmHg 78%
    07:00 +8°C° 0 mm 5 mps 720 mmHg 73%
    08:00 +9°C° 0 mm 6 mps 720 mmHg 68%
    09:00 +11°C° 0 mm 7 mps 721 mmHg 63%
    10:00 +12°C° 0 mm 7 mps 721 mmHg 55%
    11:00 +15°C° 0 mm 6 mps 720 mmHg 48%
    12:00 +17°C° 0 mm 6 mps 720 mmHg 40%
    13:00 +19°C° 0 mm 6 mps 719 mmHg 37%
    14:00 +19°C° 0 mm 6 mps 719 mmHg 34%
    15:00 +20°C° 0 mm 6 mps 718 mmHg 31%
    16:00 +19°C° 0 mm 6 mps 718 mmHg 36%
    17:00 +17°C° 0 mm 6 mps 719 mmHg 41%
    18:00 +16°C° 0 mm 6 mps 719 mmHg 46%
    19:00 +14°C° 0 mm 6 mps 719 mmHg 51%
    20:00 +13°C° 0 mm 5 mps 720 mmHg 56%
    21:00 +12°C° 0 mm 5 mps 720 mmHg 62%
    22:00 +11°C° 0 mm 4 mps 720 mmHg 64%
    23:00 +11°C° 0 mm 4 mps 720 mmHg 67%

    25 August, Saturday

    Time Temperature Precipitation Wind Pressure Humidity
    00:00 +10°C° 0 mm 4 mps 720 mmHg 69%
    01:00 +10°C° 0 mm 4 mps 720 mmHg 72%
    02:00 +8°C° 0 mm 4 mps 719 mmHg 75%
    03:00 +8°C° 0 mm 4 mps 719 mmHg 78%
    04:00 +9°C° 0 mm 3 mps 719 mmHg 80%
    05:00 +8°C° 0 mm 3 mps 719 mmHg 83%
    06:00 +8°C° 0 mm 3 mps 719 mmHg 86%
    07:00 +10°C° 0 mm 4 mps 720 mmHg 77%
    08:00 +11°C° 0 mm 4 mps 720 mmHg 68%
    09:00 +13°C° 0 mm 4 mps 720 mmHg 59%
    10:00 +15°C° 0 mm 4 mps 720 mmHg 51%
    11:00 +17°C° 0 mm 3 mps 720 mmHg 43%
    12:00 +19°C° 0 mm 3 mps 719 mmHg 35%
    13:00 +20°C° 0 mm 3 mps 719 mmHg 31%
    14:00 +21°C° 0 mm 3 mps 718 mmHg 28%
    15:00 +23°C° 0 mm 2 mps 718 mmHg 25%
    16:00 +20°C° 0 mm 2 mps 718 mmHg 26%
    17:00 +19°C° 0 mm 2 mps 718 mmHg 27%
    18:00 +18°C° 0 mm 2 mps 718 mmHg 29%
    19:00 +18°C° 0 mm 2 mps 719 mmHg 30%
    20:00 +17°C° 0 mm 3 mps 719 mmHg 31%
    21:00 +16°C° 0 mm 3 mps 720 mmHg 32%
    22:00 +14°C° 0 mm 3 mps 720 mmHg 34%
    23:00 +14°C° 0 mm 3 mps 720 mmHg 35%

    26 August, Sunday

    Time Temperature Precipitation Wind Pressure Humidity
    00:00 +13°C° 0 mm 3 mps 720 mmHg 37%
    01:00 +13°C° 0 mm 3 mps 719 mmHg 39%
    02:00 +12°C° 0 mm 3 mps 719 mmHg 41%
    03:00 +11°C° 0 mm 3 mps 719 mmHg 43%
    04:00 +11°C° 0 mm 3 mps 719 mmHg 44%
    05:00 +11°C° 0 mm 3 mps 719 mmHg 45%
    06:00 +10°C° 0 mm 3 mps 720 mmHg 47%
    07:00 +12°C° 0 mm 4 mps 720 mmHg 41%
    08:00 +14°C° 0 mm 5 mps 720 mmHg 36%
    09:00 +16°C° 0 mm 6 mps 721 mmHg 31%
    10:00 +19°C° 0 mm 5 mps 721 mmHg 28%
    11:00 +21°C° 0 mm 5 mps 720 mmHg 24%
    12:00 +23°C° 0 mm 5 mps 720 mmHg 21%
    13:00 +25°C° 0 mm 4 mps 719 mmHg 19%
    14:00 +26°C° 0 mm 4 mps 719 mmHg 17%
    15:00 +26°C° 0 mm 3 mps 718 mmHg 15%
    16:00 +25°C° 0 mm 2 mps 718 mmHg 18%
    17:00 +23°C° 0 mm 2 mps 718 mmHg 20%
    18:00 +21°C° 0 mm 1 mps 718 mmHg 22%
    19:00 +20°C° 0 mm 2 mps 718 mmHg 22%
    20:00 +19°C° 0 mm 3 mps 719 mmHg 23%
    21:00 +18°C° 0 mm 3 mps 719 mmHg 23%
    22:00 +18°C° 0 mm 4 mps 719 mmHg 25%
    23:00 +17°C° 0 mm 4 mps 719 mmHg 26%
    Show more